| time (UTC) | temp F | wind direction | speed MPH | gust MPH | rain 1hr in | rain 24hr in | rain mn in | humidity % | barometer mb |
| 20260505013834 | 67 | 266 | 0.0 | 0.0 | 0.00 | 0.00 | 0.00 | 44 | 1015.3 |
| 20260505013334 | 68 | 266 | 0.0 | 0.0 | 0.00 | 0.00 | 0.00 | 43 | 1015.3 |
| 20260505012832 | 68 | 266 | 0.0 | 0.0 | 0.00 | 0.00 | 0.00 | 43 | 1015.2 |
| 20260505012330 | 69 | 266 | 0.0 | 0.0 | 0.00 | 0.00 | 0.00 | 42 | 1015.2 |
| 20260505011829 | 69 | 266 | 0.0 | 0.0 | 0.00 | 0.00 | 0.00 | 41 | 1015.1 |
| 20260505011325 | 70 | 266 | 0.0 | 0.0 | 0.00 | 0.00 | 0.00 | 40 | 1015.1 |
| 20260505010825 | 70 | 266 | 0.0 | 0.0 | 0.00 | 0.00 | 0.00 | 40 | 1015.0 |
| 20260505010549 | 71 | 266 | 0.0 | 0.0 | 0.00 | 0.00 | 0.00 | 40 | 1015.0 |
| 20260505010041 | 71 | 266 | 0.0 | 0.0 | 0.00 | 0.00 | 0.00 | 39 | 1014.9 |
| 20260505005319 | 71 | 266 | 0.0 | 0.0 | 0.00 | 0.00 | 0.00 | 37 | 1014.9 |
| 20260505004817 | 72 | 266 | 0.0 | 0.0 | 0.00 | 0.00 | 0.00 | 37 | 1014.8 |
| 20260505003811 | 73 | 265 | 0.0 | 0.0 | 0.00 | 0.00 | 0.00 | 37 | 1014.8 |
| 20260505003302 | 73 | 265 | 0.0 | 0.0 | 0.00 | 0.00 | 0.00 | 37 | 1014.7 |
| 20260505002300 | 74 | 265 | 0.0 | 0.0 | 0.00 | 0.00 | 0.00 | 35 | 1014.6 |
| 20260505001802 | 74 | 265 | 0.0 | 0.0 | 0.00 | 0.00 | 0.00 | 35 | 1014.6 |
| 20260505000757 | 74 | 265 | 0.0 | 0.0 | 0.00 | 0.00 | 0.00 | 34 | 1014.6 |
| 20260505000255 | 75 | 265 | 0.0 | 3.0 | 0.00 | 0.00 | 0.00 | 34 | 1014.6 |
| 20260504235253 | 75 | 307 | 0.0 | 5.0 | 0.00 | 0.00 | 0.00 | 33 | 1014.5 |
| 20260504234753 | 75 | 224 | 1.0 | 5.0 | 0.00 | 0.00 | 0.00 | 33 | 1014.4 |
| 20260504234251 | 76 | 194 | 0.0 | 7.0 | 0.00 | 0.00 | 0.00 | 33 | 1014.3 |
| 20260504234019 | 76 | 275 | 0.0 | 7.0 | 0.00 | 0.00 | 0.00 | 33 | 1014.1 |
| 20260504233512 | 76 | 248 | 0.0 | 3.0 | 0.00 | 0.00 | 0.00 | 32 | 1014.1 |
| 20260504232749 | 76 | 224 | 0.0 | 2.0 | 0.00 | 0.00 | 0.00 | 31 | 1014.0 |
| 20260504232248 | 76 | 302 | 0.0 | 1.0 | 0.00 | 0.00 | 0.00 | 30 | 1014.0 |
| 20260504231747 | 77 | 39 | 1.0 | 6.0 | 0.00 | 0.00 | 0.00 | 29 | 1013.9 |
| 20260504231518 | 77 | 228 | 1.0 | 7.0 | 0.00 | 0.00 | 0.00 | 30 | 1013.9 |
| 20260504230746 | 77 | 264 | 1.0 | 7.0 | 0.00 | 0.00 | 0.00 | 30 | 1013.9 |
| 20260504230244 | 77 | 243 | 1.0 | 4.0 | 0.00 | 0.00 | 0.00 | 32 | 1013.9 |
| 20260504225739 | 77 | 261 | 0.0 | 2.0 | 0.00 | 0.00 | 0.00 | 31 | 1013.9 |
| 20260504225233 | 77 | 188 | 1.0 | 7.0 | 0.00 | 0.00 | 0.00 | 32 | 1013.9 |
| 20260504224726 | 77 | 245 | 1.0 | 7.0 | 0.00 | 0.00 | 0.00 | 31 | 1013.9 |
| 20260504224221 | 78 | 271 | 0.0 | 4.0 | 0.00 | 0.00 | 0.00 | 30 | 1013.9 |
| 20260504223715 | 78 | 252 | 1.0 | 4.0 | 0.00 | 0.00 | 0.00 | 29 | 1013.9 |
| 20260504223209 | 78 | 254 | 1.0 | 5.0 | 0.00 | 0.00 | 0.00 | 29 | 1013.9 |
| 20260504222925 | 78 | 287 | 1.0 | 7.0 | 0.00 | 0.00 | 0.00 | 28 | 1013.9 |
| 20260504222422 | 78 | 300 | 2.0 | 7.0 | 0.00 | 0.00 | 0.00 | 28 | 1013.9 |
| 20260504221651 | 78 | 281 | 1.0 | 7.0 | 0.00 | 0.00 | 0.00 | 29 | 1013.9 |
| 20260504221145 | 78 | 180 | 1.0 | 5.0 | 0.00 | 0.00 | 0.00 | 27 | 1014.0 |
| 20260504220638 | 78 | 269 | 1.0 | 6.0 | 0.00 | 0.00 | 0.00 | 29 | 1014.0 |
| 20260504220133 | 78 | 265 | 1.0 | 7.0 | 0.00 | 0.00 | 0.00 | 27 | 1014.0 |
| 20260504215846 | 78 | 252 | 1.0 | 7.0 | 0.00 | 0.00 | 0.00 | 27 | 1013.9 |
| 20260504215121 | 78 | 234 | 2.0 | 9.0 | 0.00 | 0.00 | 0.00 | 27 | 1013.9 |
| 20260504214615 | 78 | 238 | 2.0 | 9.0 | 0.00 | 0.00 | 0.00 | 27 | 1014.0 |
| 20260504214109 | 78 | 273 | 1.0 | 6.0 | 0.00 | 0.00 | 0.00 | 26 | 1013.9 |
| 20260504213604 | 78 | 316 | 1.0 | 4.0 | 0.00 | 0.00 | 0.00 | 26 | 1013.9 |
| 20260504212551 | 78 | 190 | 1.0 | 3.0 | 0.00 | 0.00 | 0.00 | 26 | 1014.1 |
| 20260504212046 | 78 | 37 | 2.0 | 6.0 | 0.00 | 0.00 | 0.00 | 26 | 1014.0 |
| 20260504211803 | 78 | 255 | 2.0 | 7.0 | 0.00 | 0.00 | 0.00 | 27 | 1014.0 |
| 20260504211034 | 78 | 259 | 1.0 | 7.0 | 0.00 | 0.00 | 0.00 | 27 | 1014.0 |
| 20260504210755 | 78 | 169 | 1.0 | 6.0 | 0.00 | 0.00 | 0.00 | 30 | 1014.0 |
| 20260504210246 | 78 | 267 | 2.0 | 6.0 | 0.00 | 0.00 | 0.00 | 28 | 1014.1 |
| 20260504205740 | 78 | 288 | 1.0 | 8.0 | 0.00 | 0.00 | 0.00 | 28 | 1014.3 |
| 20260504205009 | 79 | 271 | 0.0 | 8.0 | 0.00 | 0.00 | 0.00 | 27 | 1014.3 |
| 20260504204218 | 79 | 255 | 2.0 | 8.0 | 0.00 | 0.00 | 0.00 | 25 | 1014.5 |
| 20260504203451 | 80 | 290 | 3.0 | 8.0 | 0.00 | 0.00 | 0.00 | 26 | 1014.5 |
| 20260504202945 | 80 | 284 | 2.0 | 8.0 | 0.00 | 0.00 | 0.00 | 27 | 1014.6 |
| 20260504202700 | 80 | 257 | 0.0 | 5.0 | 0.00 | 0.00 | 0.00 | 27 | 1014.6 |
| 20260504201933 | 80 | 75 | 1.0 | 7.0 | 0.00 | 0.00 | 0.00 | 26 | 1014.7 |
| 20260504201427 | 80 | 216 | 1.0 | 7.0 | 0.00 | 0.00 | 0.00 | 31 | 1014.7 |
| 20260504201154 | 80 | 286 | 1.0 | 4.0 | 0.00 | 0.00 | 0.00 | 26 | 1014.8 |
| 20260504200425 | 80 | 77 | 1.0 | 5.0 | 0.00 | 0.00 | 0.00 | 27 | 1014.7 |
| 20260504195926 | 80 | 231 | 1.0 | 5.0 | 0.00 | 0.00 | 0.00 | 25 | 1014.8 |
| 20260504195425 | 81 | 277 | 1.0 | 5.0 | 0.00 | 0.00 | 0.00 | 25 | 1015.0 |
| 20260504194925 | 81 | 273 | 1.0 | 4.0 | 0.00 | 0.00 | 0.00 | 28 | 1014.9 |
| 20260504194424 | 81 | 233 | 1.0 | 4.0 | 0.00 | 0.00 | 0.00 | 28 | 1014.8 |
| 20260504193926 | 80 | 323 | 1.0 | 8.0 | 0.00 | 0.00 | 0.00 | 25 | 1015.0 |
| 20260504193643 | 80 | 251 | 2.0 | 8.0 | 0.00 | 0.00 | 0.00 | 25 | 1015.0 |
| 20260504192924 | 80 | 284 | 2.0 | 7.0 | 0.00 | 0.00 | 0.00 | 27 | 1015.1 |
| 20260504192641 | 80 | 215 | 1.0 | 6.0 | 0.00 | 0.00 | 0.00 | 25 | 1015.2 |
| 20260504191923 | 80 | 75 | 1.0 | 6.0 | 0.00 | 0.00 | 0.00 | 25 | 1015.2 |
| 20260504191423 | 81 | 36 | 2.0 | 8.0 | 0.00 | 0.00 | 0.00 | 28 | 1015.4 |
| 20260504190923 | 80 | 254 | 2.0 | 8.0 | 0.00 | 0.00 | 0.00 | 27 | 1015.4 |
| 20260504190423 | 81 | 289 | 1.0 | 8.0 | 0.00 | 0.00 | 0.00 | 27 | 1015.4 |
| 20260504185923 | 80 | 11 | 1.0 | 6.0 | 0.00 | 0.00 | 0.00 | 28 | 1015.4 |
| 20260504185423 | 80 | 211 | 1.0 | 5.0 | 0.00 | 0.00 | 0.00 | 31 | 1015.6 |
| 20260504185145 | 80 | 237 | 2.0 | 5.0 | 0.00 | 0.00 | 0.00 | 31 | 1015.5 |
| 20260504184417 | 80 | 293 | 2.0 | 5.0 | 0.00 | 0.00 | 0.00 | 29 | 1015.6 |
| 20260504183911 | 80 | 248 | 2.0 | 6.0 | 0.00 | 0.00 | 0.00 | 28 | 1015.8 |
| 20260504183405 | 80 | 145 | 1.0 | 6.0 | 0.00 | 0.00 | 0.00 | 27 | 1015.8 |
| 20260504182859 | 80 | 283 | 1.0 | 6.0 | 0.00 | 0.00 | 0.00 | 31 | 1015.9 |
| 20260504182353 | 80 | 92 | 1.0 | 6.0 | 0.00 | 0.00 | 0.00 | 30 | 1016.0 |
| 20260504182113 | 80 | 76 | 1.0 | 5.0 | 0.00 | 0.00 | 0.00 | 30 | 1016.0 |
| 20260504181341 | 80 | 55 | 1.0 | 5.0 | 0.00 | 0.00 | 0.00 | 30 | 1016.0 |
| 20260504180834 | 80 | 209 | 1.0 | 5.0 | 0.00 | 0.00 | 0.00 | 28 | 1016.1 |
| 20260504180330 | 79 | 246 | 1.0 | 5.0 | 0.00 | 0.00 | 0.00 | 31 | 1016.2 |
| 20260504175827 | 79 | 323 | 1.0 | 5.0 | 0.00 | 0.00 | 0.00 | 31 | 1016.3 |
| 20260504175326 | 79 | 329 | 1.0 | 5.0 | 0.00 | 0.00 | 0.00 | 29 | 1016.3 |
| 20260504174827 | 79 | 93 | 1.0 | 5.0 | 0.00 | 0.00 | 0.00 | 33 | 1016.3 |
| 20260504174327 | 79 | 80 | 1.0 | 4.0 | 0.00 | 0.00 | 0.00 | 30 | 1016.3 |
| 20260504173825 | 79 | 242 | 1.0 | 4.0 | 0.00 | 0.00 | 0.00 | 32 | 1016.3 |
| 20260504173327 | 78 | 82 | 1.0 | 7.0 | 0.00 | 0.00 | 0.00 | 33 | 1016.4 |
| 20260504172826 | 78 | 151 | 2.0 | 7.0 | 0.00 | 0.00 | 0.00 | 33 | 1016.5 |
| 20260504172549 | 78 | 175 | 1.0 | 8.0 | 0.00 | 0.00 | 0.00 | 34 | 1016.6 |
| 20260504172042 | 77 | 94 | 1.0 | 8.0 | 0.00 | 0.00 | 0.00 | 34 | 1016.5 |
| 20260504171322 | 77 | 331 | 1.0 | 5.0 | 0.00 | 0.00 | 0.00 | 30 | 1016.5 |
| 20260504170822 | 77 | 226 | 1.0 | 5.0 | 0.00 | 0.00 | 0.00 | 34 | 1016.5 |
| 20260504170322 | 77 | 141 | 1.0 | 3.0 | 0.00 | 0.00 | 0.00 | 33 | 1016.6 |
| 20260504160315 | 73 | 268 | 1.0 | 4.0 | 0.00 | 0.00 | 0.00 | 41 | 1017.8 |
| 20260504150809 | 69 | 181 | 1.0 | 5.0 | 0.00 | 0.00 | 0.00 | 49 | 1017.9 |
| 20260504150308 | 69 | 98 | 0.0 | 3.0 | 0.00 | 0.00 | 0.00 | 54 | 1018.0 |
| 20260504141302 | 61 | 300 | 0.0 | 3.0 | 0.00 | 0.00 | 0.00 | 67 | 1018.1 |
| 20260504140803 | 60 | 300 | 0.0 | 2.0 | 0.00 | 0.00 | 0.00 | 68 | 1018.0 |
| 20260504130758 | 54 | 224 | 1.0 | 4.0 | 0.00 | 0.00 | 0.00 | 81 | 1018.0 |
| 20260504130256 | 53 | 316 | 1.0 | 4.0 | 0.00 | 0.00 | 0.00 | 82 | 1018.1 |
| 20260504120252 | 46 | 76 | 0.0 | 0.0 | 0.00 | 0.00 | 0.00 | 90 | 1017.6 |
| 20260504110656 | 45 | 243 | 0.0 | 0.0 | 0.00 | 0.00 | 0.00 | 87 | 1017.8 |
| 20260504110149 | 45 | 243 | 0.0 | 0.0 | 0.00 | 0.00 | 0.00 | 87 | 1017.7 |
| 20260504100544 | 46 | 249 | 0.0 | 0.0 | 0.00 | 0.00 | 0.00 | 87 | 1017.6 |
| 20260504081838 | 47 | 249 | 0.0 | 1.0 | 0.00 | 0.00 | 0.00 | 83 | 1017.1 |
| 20260504081332 | 47 | 249 | 0.0 | 0.0 | 0.00 | 0.00 | 0.00 | 83 | 1017.1 |
| 20260504081045 | 47 | 249 | 0.0 | 0.0 | 0.00 | 0.00 | 0.00 | 83 | 1017.1 |
| 20260504080320 | 47 | 249 | 0.0 | 0.0 | 0.00 | 0.00 | 0.00 | 83 | 1017.1 |
| 20260504050619 | 50 | 249 | 1.0 | 1.0 | 0.00 | 0.00 | 0.00 | 77 | 1017.5 |
| 20260504050116 | 50 | 249 | 1.0 | 1.0 | 0.00 | 0.00 | 0.00 | 76 | 1017.5 |
| 20260504045616 | 50 | 249 | 0.0 | 1.0 | 0.00 | 0.00 | 0.00 | 76 | 1017.6 |
| 20260504045116 | 51 | 249 | 0.0 | 1.0 | 0.00 | 0.00 | 0.00 | 75 | 1017.7 |
| 20260504044613 | 51 | 249 | 0.0 | 1.0 | 0.00 | 0.00 | 0.00 | 75 | 1017.7 |
| 20260504044114 | 51 | 249 | 0.0 | 0.0 | 0.00 | 0.00 | 0.00 | 74 | 1017.6 |
| 20260504043613 | 51 | 249 | 0.0 | 0.0 | 0.00 | 0.00 | 0.00 | 74 | 1017.7 |
| 20260504043111 | 51 | 249 | 0.0 | 0.0 | 0.00 | 0.00 | 0.00 | 73 | 1017.7 |
| 20260504042612 | 51 | 249 | 0.0 | 0.0 | 0.00 | 0.00 | 0.00 | 73 | 1017.7 |
| 20260504042112 | 51 | 249 | 0.0 | 0.0 | 0.00 | 0.00 | 0.00 | 73 | 1017.8 |
| 20260504041610 | 52 | 249 | 0.0 | 0.0 | 0.00 | 0.00 | 0.00 | 73 | 1017.8 |
| 20260504041108 | 52 | 249 | 0.0 | 0.0 | 0.00 | 0.00 | 0.00 | 72 | 1017.8 |
| 20260504040836 | 52 | 249 | 0.0 | 0.0 | 0.00 | 0.00 | 0.00 | 71 | 1017.8 |
| 20260504040107 | 52 | 249 | 0.0 | 0.0 | 0.00 | 0.00 | 0.00 | 71 | 1017.9 |
| 20260504035821 | 52 | 249 | 0.0 | 0.0 | 0.00 | 0.00 | 0.00 | 71 | 1017.9 |
| 20260504035315 | 53 | 249 | 0.0 | 0.0 | 0.00 | 0.00 | 0.00 | 70 | 1017.8 |
| 20260504034550 | 53 | 249 | 0.0 | 0.0 | 0.00 | 0.00 | 0.00 | 70 | 1017.8 |
| 20260504034045 | 53 | 249 | 0.0 | 0.0 | 0.00 | 0.00 | 0.00 | 69 | 1017.8 |
| 20260504033754 | 53 | 249 | 0.0 | 0.0 | 0.00 | 0.00 | 0.00 | 69 | 1017.9 |
| 20260504033033 | 53 | 249 | 0.0 | 0.0 | 0.00 | 0.00 | 0.00 | 69 | 1017.9 |
| 20260504032750 | 53 | 249 | 0.0 | 0.0 | 0.00 | 0.00 | 0.00 | 68 | 1017.9 |
| 20260504032021 | 54 | 249 | 0.0 | 0.0 | 0.00 | 0.00 | 0.00 | 67 | 1017.9 |
| 20260504031514 | 54 | 249 | 0.0 | 0.0 | 0.00 | 0.00 | 0.00 | 67 | 1017.9 |
| 20260504031009 | 54 | 249 | 0.0 | 0.0 | 0.00 | 0.00 | 0.00 | 67 | 1017.9 |
| 20260504030501 | 54 | 249 | 0.0 | 0.0 | 0.00 | 0.00 | 0.00 | 66 | 1017.9 |
| 20260504025956 | 55 | 249 | 0.0 | 0.0 | 0.00 | 0.00 | 0.00 | 66 | 1017.8 |
| 20260504025453 | 55 | 249 | 0.0 | 0.0 | 0.00 | 0.00 | 0.00 | 65 | 1017.8 |
| 20260504024950 | 55 | 249 | 0.0 | 0.0 | 0.00 | 0.00 | 0.00 | 64 | 1017.7 |
| 20260504024448 | 55 | 249 | 0.0 | 0.0 | 0.00 | 0.00 | 0.00 | 64 | 1017.7 |
| 20260504023948 | 56 | 249 | 0.0 | 0.0 | 0.00 | 0.00 | 0.00 | 63 | 1017.7 |
| 20260504023448 | 56 | 249 | 0.0 | 1.0 | 0.00 | 0.00 | 0.00 | 63 | 1017.6 |
| 20260504022949 | 56 | 249 | 0.0 | 1.0 | 0.00 | 0.00 | 0.00 | 62 | 1017.6 |
| 20260504022448 | 56 | 249 | 0.0 | 1.0 | 0.00 | 0.00 | 0.00 | 61 | 1017.5 |
| 20260504021948 | 56 | 249 | 0.0 | 0.0 | 0.00 | 0.00 | 0.00 | 61 | 1017.5 |
| 20260504021448 | 56 | 249 | 0.0 | 0.0 | 0.00 | 0.00 | 0.00 | 60 | 1017.4 |
| 20260504020948 | 57 | 249 | 0.0 | 0.0 | 0.00 | 0.00 | 0.00 | 60 | 1017.3 |
| 20260504020445 | 57 | 249 | 0.0 | 0.0 | 0.00 | 0.00 | 0.00 | 59 | 1017.2 |
| 20260504015945 | 57 | 249 | 0.0 | 0.0 | 0.00 | 0.00 | 0.00 | 59 | 1017.2 |
| 20260504015445 | 58 | 249 | 0.0 | 0.0 | 0.00 | 0.00 | 0.00 | 58 | 1017.1 |
| 20260504014946 | 58 | 249 | 0.0 | 0.0 | 0.00 | 0.00 | 0.00 | 57 | 1017.1 |